Wind_Speed
16 18 19 21 22 23 22 21 21 20 19 18 17 16 15 14 14 14 13 13 13 13 13 13 12 11 11 10 9 8 7 6 4 3 3 3 2 1 0 1 3 6 7 7 7 7 6 6 6 6 6 6 6 6 6 5 5 5 5 5 5 4 4 3 3 3 2 2 2 2 1 1 2 2 3 3 3 2 1 1 1 2 2 2 2 1
15 16 18 19 22 23 22 20 19 19 18 17 16 16 15 15 15 15 14 14 13 13 13 12 12 11 10 10 8 7 7 6 5 5 4 4 3 2 2 3 5 7 7 7 7 6 6 5 5 5 5 4 4 4 4 3 3 4 4 4 4 3 3 3 2 2 2 2 3 3 3 2 3 3 3 3 3 2 1 1 2 2 2 3 3 2
15 16 18 19 21 22 22 20 19 18 17 16 16 15 15 15 14 14 14 14 13 12 12 12 11 11 10 10 8 7 6 6 6 5 5 4 3 3 3 4 6 7 7 7 6 5 5 4 4 4 3 3 2 2 2 2 2 2 3 3 3 3 3 3 3 3 3 3 4 4 4 4 3 3 3 3 2 1 1 2 2 2 2 3 3 3
17 18 19 20 20 20 20 20 19 17 16 16 15 15 14 14 14 13 13 13 12 11 11 11 11 10 10 9 7 5 5 5 5 5 5 4 4 4 5 6 7 7 7 6 6 5 4 4 3 2 2 1 1 0 1 1 2 2 2 3 4 4 4 4 5 5 5 5 6 6 6 5 5 4 4 3 3 2 2 2 2 2 2 3 3 3
17 18 20 20 18 18 19 20 19 18 17 16 15 14 14 13 13 12 12 11 11 10 10 9 9 9 8 7 6 5 4 4 4 5 5 5 5 5 6 7 7 7 7 6 5 5 4 3 2 2 1 0 0 1 2 2 2 3 3 3 3 4 4 5 5 6 6 7 7 7 7 7 6 6 5 5 4 3 3 2 2 2 3 3 3 3
15 17 19 19 18 17 19 20 20 19 18 16 15 14 13 12 12 11 11 10 10 9 8 8 8 7 7 7 8 8 7 7 7 7 7 6 6 6 7 8 8 7 7 6 5 4 3 3 2 1 1 1 1 2 2 2 2 2 2 3 3 4 4 5 5 6 6 6 7 7 7 7 7 7 7 6 5 5 4 3 3 2 3 3 3 3
15 17 18 18 18 19 20 20 20 19 18 17 15 14 12 12 11 11 10 10 9 9 8 8 8 8 8 8 9 9 9 9 9 9 9 9 8 8 8 8 7 7 7 6 5 4 3 2 2 1 1 1 2 2 2 1 1 1 2 3 4 4 5 5 6 6 6 6 6 6 6 6 7 7 7 7 6 6 5 4 3 3 3 3 3 3
16 18 18 19 19 19 20 20 20 19 19 17 16 14 13 12 11 11 11 10 10 10 9 9 8 9 9 9 9 9 9 8 9 9 10 10 10 10 9 8 8 7 6 5 4 3 2 2 2 1 1 1 1 1 2 2 2 2 3 4 5 6 6 6 7 7 7 6 6 5 5 5 5 5 6 6 6 6 6 5 4 3 3 3 3 3
18 19 20 20 20 19 19 19 20 19 18 17 16 15 14 14 13 12 12 12 12 11 10 10 9 9 10 10 9 9 8 8 8 8 9 9 9 9 9 8 8 7 6 5 4 3 2 2 2 2 2 2 2 3 3 4 4 5 5 6 6 7 7 7 7 7 6 5 4 3 3 3 3 3 4 5 5 6 6 6 5 4 4 3 3 3
18 19 20 20 21 20 19 19 20 20 18 16 15 14 15 15 15 15 14 14 13 13 12 10 10 9 9 9 9 8 8 8 7 8 8 8 8 7 7 7 7 7 6 5 4 3 2 2 2 3 3 3 4 4 5 6 6 7 7 7 7 7 7 7 7 6 5 4 2 2 1 2 2 2 2 3 4 5 5 6 6 5 5 4 3 3
17 18 18 18 20 20 20 21 21 20 18 16 14 14 14 15 16 16 16 16 15 15 13 12 11 10 9 9 9 9 8 8 7 7 6 6 6 6 6 6 7 7 7 7 6 5 4 4 4 4 5 6 6 7 7 8 8 8 8 7 7 6 6 6 5 5 4 2 1 1 1 1 1 1 1 2 2 3 4 5 5 6 6 5 4 4
16 17 17 17 18 19 19 21 22 21 19 17 14 13 14 15 16 17 17 18 17 16 15 14 12 11 10 10 9 9 8 8 7 6 6 5 5 5 5 6 6 7 7 8 8 7 7 6 6 7 7 8 8 9 9 9 9 8 7 6 5 5 5 4 4 3 2 1 1 0 0 0 1 1 1 1 1 1 2 2 3 4 5 5 4 4
16 17 17 17 17 17 18 19 20 20 19 17 15 14 15 17 17 17 16 18 18 17 16 15 14 12 11 10 10 10 9 8 8 6 6 5 5 5 5 5 6 6 7 7 7 7 8 8 8 9 9 9 9 9 9 9 8 7 5 4 4 3 3 3 2 2 2 1 1 0 0 0 1 1 1 1 0 0 0 1 1 2 3 3 3 3
15 16 15 15 15 16 17 19 20 19 18 18 17 17 18 18 18 17 16 17 18 17 16 15 15 13 12 12 11 11 10 9 8 7 6 6 6 6 6 6 6 6 6 6 7 7 7 8 8 9 9 9 9 9 8 7 6 4 3 2 1 1 1 2 2 2 1 1 0 0 0 1 1 1 1 1 0 0 0 0 1 1 1 1 2 2
15 15 13 13 14 16 18 19 20 19 19 19 18 18 17 18 18 17 16 16 17 17 16 15 14 13 12 12 12 11 10 10 9 8 7 7 7 7 7 7 7 7 7 7 7 7 7 8 8 9 9 9 8 7 6 5 3 2 1 1 1 1 2 2 2 2 1 1 0 0 1 1 1 1 1 1 1 1 1 1 1 1 1 1 1 1
17 16 14 13 14 16 18 20 19 19 19 19 18 17 16 18 18 17 16 17 18 18 16 14 12 10 10 12 13 12 11 10 10 9 8 8 8 8 8 7 7 7 7 7 7 8 8 8 8 8 8 7 6 5 4 3 1 1 1 1 2 2 2 2 2 2 2 1 1 1 1 2 2 2 2 2 1 1 1 1 2 2 2 1 1 1
17 16 15 15 15 16 19 20 20 19 20 19 18 17 17 17 18 17 17 17 18 18 16 13 9 6 6 8 11 13 12 11 10 9 9 9 9 9 8 8 7 7 7 7 7 7 8 7 7 6 6 5 4 4 2 1 1 1 1 2 2 2 2 2 2 2 2 2 2 2 2 2 3 3 3 2 2 2 2 2 2 2 2 2 2 2
16 16 15 14 15 17 19 20 20 20 20 20 19 18 17 17 17 17 17 17 18 17 16 14 10 7 5 4 7 11 13 12 10 10 9 9 9 9 9 8 7 7 7 7 7 7 6 6 5 5 5 4 4 3 2 2 1 1 2 2 2 2 2 2 2 3 3 3 2 2 2 2 3 3 3 3 2 2 2 2 2 2 2 2 2 3
17 18 17 15 16 18 20 21 21 21 20 20 20 19 17 17 17 17 17 17 17 16 15 14 11 7 5 4 6 9 10 10 10 9 9 9 9 9 8 8 7 7 7 6 6 6 5 5 5 4 4 4 4 4 3 3 2 2 2 2 2 2 3 3 4 4 4 3 2 2 2 2 3 3 3 3 3 2 1 1 1 2 2 2 2 3
18 19 19 18 18 19 20 21 22 21 21 20 20 19 18 18 18 17 17 16 16 16 15 14 12 9 6 5 6 7 7 7 7 8 8 8 8 8 8 7 6 6 6 5 5 5 4 4 4 4 4 5 5 5 4 4 3 3 2 2 2 3 4 4 5 5 4 2 2 2 2 2 3 3 3 3 3 2 1 1 1 1 2 2 2 3
16 17 17 18 17 18 19 20 20 19 19 19 19 19 18 18 18 18 17 17 16 16 14 13 12 10 8 7 7 6 6 5 6 7 7 7 7 8 7 6 5 5 5 5 4 4 4 4 4 5 5 5 5 6 5 5 5 4 3 3 3 4 4 4 4 4 3 3 3 2 2 2 2 3 3 3 3 3 2 2 1 2 2 3 3 3
10 12 13 13 14 13 13 14 15 16 16 17 18 18 18 17 17 18 17 17 16 15 14 11 10 9 9 8 7 6 6 5 5 6 6 5 5 6 5 4 5 5 5 5 4 4 4 4 4 5 5 5 6 6 6 6 5 4 3 3 4 4 4 3 3 1 1 3 3 2 2 1 1 1 2 2 2 3 3 2 2 2 2 3 3 3
5 6 8 9 9 8 7 8 11 13 14 14 15 14 14 14 15 15 15 15 15 14 13 12 10 9 9 8 7 7 6 6 6 6 5 4 3 3 3 4 5 6 6 5 4 3 3 4 4 5 5 5 6 6 6 6 6 5 4 4 4 4 3 1 0 1 2 2 2 2 1 1 1 1 1 2 2 2 2 3 3 3 3 3 4 4
3 4 6 7 7 6 6 7 9 11 12 12 11 10 9 9 10 10 10 11 12 12 12 11 10 8 7 7 7 7 6 6 6 6 5 4 3 3 3 4 5 6 6 5 4 3 3 4 4 5 5 6 6 6 6 6 6 5 4 4 4 3 2 1 1 1 1 1 2 2 1 1 1 1 1 2 2 2 2 3 3 4 4 4 4 4
5 6 7 7 7 7 7 8 9 10 11 11 10 10 9 9 9 9 9 10 10 11 11 10 9 7 7 6 6 6 6 6 6 6 6 5 4 3 4 4 5 5 5 5 4 4 4 4 5 6 6 6 6 6 5 5 6 6 5 5 4 3 2 2 2 2 2 2 2 2 2 2 2 2 2 2 2 2 2 2 3 3 4 4 5 5
6 7 8 8 8 9 9 9 9 10 10 11 11 10 10 10 10 10 10 10 11 10 10 9 8 7 7 6 6 6 6 6 6 6 6 5 4 4 4 4 4 5 5 5 5 4 4 5 6 6 6 6 5 4 4 5 5 6 5 5 5 4 4 3 3 2 2 2 2 2 2 2 2 2 2 2 2 2 2 2 3 3 4 4 5 5
7 8 8 9 9 10 10 10 10 11 11 11 11 10 10 10 10 11 11 11 10 10 10 8 6 6 7 6 5 5 6 6 5 6 6 5 5 4 4 4 4 4 4 5 5 5 5 5 6 5 5 4 4 6 8 7 6 6 6 6 6 5 5 4 4 3 2 2 2 2 2 2 2 2 2 2 2 2 2 2 3 3 4 4 5 6
9 10 10 10 10 10 11 11 12 12 12 11 10 10 9 9 9 10 11 10 10 10 10 8 6 5 5 5 5 5 5 6 6 6 5 5 4 4 4 3 3 3 4 4 4 5 5 5 5 4 3 4 6 8 10 11 10 9 7 7 6 5 4 4 3 3 3 3 3 2 2 2 2 2 2 3 3 3 3 3 4 4 4 5 6 7
12 12 12 11 11 12 12 12 12 11 11 11 10 9 8 7 7 8 9 9 9 9 9 8 6 5 4 5 5 5 5 6 6 6 6 5 4 4 4 3 3 3 3 3 3 4 4 4 3 3 3 5 7 9 11 11 11 10 9 7 6 5 4 3 3 3 4 4 4 4 3 3 3 3 3 4 4 5 5 5 5 6 6 7 8 8
12 13 13 12 12 12 13 12 12 10 10 9 9 9 8 7 6 6 6 7 7 8 8 8 7 6 5 4 4 3 4 6 7 7 6 6 5 4 4 3 3 3 3 2 2 2 2 2 2 3 4 5 7 9 11 11 11 10 9 8 6 5 5 5 6 6 5 5 6 6 6 6 5 5 6 6 6 7 7 7 7 8 8 9 9 9
12 12 12 12 11 11 12 12 12 11 10 9 8 8 7 7 6 6 6 6 6 6 7 7 7 6 5 4 2 1 2 4 6 6 6 6 5 4 4 3 3 3 3 2 2 1 1 2 3 3 4 5 7 9 10 10 10 10 9 8 7 6 7 8 8 8 7 7 7 7 7 8 8 8 8 9 9 9 9 9 9 9 9 9 9 9
11 11 11 10 10 10 10 11 11 11 10 9 8 7 6 5 5 5 5 5 5 5 5 6 5 5 4 4 3 2 2 3 4 5 5 6 6 5 4 4 3 3 3 3 2 1 1 3 3 4 4 5 6 7 8 9 10 10 10 9 9 8 9 10 10 9 9 8 8 8 9 9 10 10 11 11 11 12 12 11 11 10 10 9 9 9
10 10 10 10 10 10 10 10 10 10 9 8 7 6 5 4 4 4 4 4 4 4 4 4 4 4 4 4 4 3 3 3 4 4 5 5 5 5 5 4 3 3 3 3 3 3 2 1 2 3 4 5 6 7 7 8 9 10 10 10 10 11 11 11 11 10 9 8 8 9 10 10 11 12 12 13 13 13 13 12 11 10 9 8 9 9
10 10 10 10 10 10 10 10 10 10 9 8 7 6 5 4 4 3 3 3 2 3 3 3 3 3 4 4 4 3 3 4 4 4 4 5 5 4 5 4 4 4 4 4 4 4 4 4 4 3 4 6 7 7 8 9 9 10 11 11 12 12 12 11 10 9 9 9 10 10 11 12 12 13 13 13 13 13 12 11 10 8 7 8 8 9
9 9 10 10 10 11 11 11 11 10 9 8 7 6 6 5 4 4 3 3 3 3 3 3 3 3 3 3 3 3 4 4 4 4 4 4 5 5 5 5 5 5 5 4 4 3 4 4 5 4 4 4 6 7 9 9 10 11 11 11 12 12 12 11 10 10 10 11 11 12 12 13 13 13 12 12 12 11 10 10 8 7 7 7 8 8
9 9 9 9 10 10 11 10 10 10 9 9 8 8 7 6 6 5 5 5 4 4 4 4 3 3 3 3 3 3 3 4 4 3 3 4 4 4 4 5 5 6 6 6 5 4 4 4 4 5 5 4 4 5 7 8 9 9 10 10 11 11 11 11 11 11 12 12 13 13 13 13 12 12 11 11 11 10 10 10 9 9 8 8 7 8
8 8 8 8 9 9 9 10 10 9 9 9 9 9 8 8 7 7 6 6 5 5 4 4 4 4 3 3 3 3 3 3 3 3 3 4 4 4 4 5 5 6 6 6 6 6 5 4 4 5 6 6 4 4 5 6 8 8 8 9 10 11 12 12 13 13 13 13 13 13 12 12 11 11 11 10 10 10 10 10 10 10 10 10 9 9
8 8 8 8 8 8 8 8 8 8 8 8 8 8 7 7 7 6 6 5 5 5 5 5 4 4 4 3 3 3 3 3 4 4 4 5 5 5 5 5 5 6 6 6 7 7 7 5 4 4 4 6 7 7 8 8 9 10 10 11 12 13 13 13 14 14 13 13 12 12 11 11 10 10 10 10 10 10 10 10 10 10 10 10 11 11
8 8 8 7 7 7 7 7 7 7 6 6 6 6 5 5 5 5 5 5 5 5 5 5 5 4 4 4 4 4 4 4 5 5 6 6 6 6 6 6 6 6 6 7 7 8 8 7 6 4 3 4 6 8 9 10 11 12 13 14 14 14 13 13 13 13 13 12 12 12 11 10 10 10 10 10 11 11 11 10 10 10 10 11 11 11
8 8 7 7 7 6 6 6 6 5 5 5 5 4 4 5 5 5 5 6 6 6 6 5 5 5 5 5 5 5 5 6 6 7 7 7 8 8 8 8 7 7 7 8 8 9 9 10 10 10 9 7 7 8 9 10 12 13 14 15 15 14 13 12 13 13 12 12 11 10 10 9 9 10 10 11 11 11 11 11 11 11 11 11 11 11
8 8 8 7 7 7 6 6 5 5 5 5 5 5 5 5 5 6 6 6 6 6 6 6 6 6 6 6 6 6 7 7 8 8 8 9 9 9 9 9 9 9 9 9 10 10 11 11 12 12 13 13 13 14 14 14 14 15 15 15 16 16 15 13 12 11 10 9 8 8 8 8 9 10 10 11 12 12 12 12 12 12 12 12 12 11
8 8 8 8 8 7 7 6 5 5 5 5 5 6 6 6 6 6 6 6 6 6 6 6 6 6 6 6 7 7 7 8 8 9 9 9 9 10 10 10 10 10 10 11 11 11 11 12 12 13 13 14 14 15 16 16 16 15 15 15 16 16 14 10 7 5 5 5 5 6 6 8 9 10 11 12 12 12 12 12 12 12 12 12 12 12
8 9 9 9 8 8 7 6 6 5 5 5 5 5 5 5 5 6 6 6 6 6 6 5 5 5 5 6 6 6 7 7 7 8 8 8 9 10 10 11 11 11 11 12 12 12 12 12 13 13 13 13 14 15 16 16 16 15 15 15 14 13 9 7 5 5 5 5 5 6 7 8 10 11 12 13 13 13 12 12 12 12 12 13 13 12
9 9 9 9 8 7 6 6 6 5 5 5 5 5 5 5 5 5 5 5 5 5 5 5 5 5 6 6 5 5 5 5 6 6 7 7 8 8 9 10 10 11 11 12 12 12 12 13 13 13 12 13 14 15 16 16 16 16 15 15 14 13 11 10 10 10 9 9 9 9 9 10 11 13 13 14 13 13 13 13 13 13 13 13 13 13
8 9 9 9 8 8 7 7 6 5 5 4 4 4 4 4 4 4 4 4 4 5 5 5 5 5 5 6 5 5 4 4 4 4 5 6 6 7 8 9 9 10 11 11 12 12 12 12 13 12 12 13 14 15 16 16 16 16 16 15 14 14 14 14 12 12 12 11 11 10 10 10 11 12 13 13 13 13 13 13 13 13 14 13 13 13
7 7 8 8 8 7 7 7 6 6 5 5 5 4 4 4 4 4 4 5 5 5 6 6 6 6 6 6 5 5 5 4 3 3 4 5 6 6 7 8 8 9 10 10 11 11 12 12 12 12 12 13 14 16 16 16 16 16 16 15 15 14 14 13 12 11 11 11 10 9 9 9 10 11 11 11 12 12 12 13 13 13 13 14 14 13
7 7 7 7 7 7 7 7 6 6 6 6 6 5 5 5 5 5 5 6 6 6 7 7 8 8 8 7 7 6 5 5 4 3 3 4 5 6 7 7 8 8 9 9 10 11 11 12 12 13 13 14 14 16 17 17 16 16 16 15 14 14 14 14 13 11 11 10 10 8 7 8 9 9 9 10 11 11 11 12 12 13 13 14 14 14
8 8 7 7 7 7 7 7 7 7 7 6 6 6 6 6 6 7 7 7 7 7 8 8 9 9 9 9 8 7 7 6 6 5 4 4 5 6 6 7 7 8 9 9 10 11 11 12 13 14 15 15 15 16 17 17 16 16 16 15 14 14 15 15 13 12 11 10 8 7 6 7 7 8 8 9 10 10 10 11 11 12 13 14 14 14
10 10 9 9 8 8 8 8 7 7 7 7 7 7 7 7 7 7 7 7 7 8 8 9 9 9 9 9 9 8 8 7 7 6 5 5 5 6 6 7 7 8 9 10 11 12 13 14 15 16 17 17 18 18 19 18 17 16 15 15 14 15 15 15 13 12 10 8 7 6 6 6 7 8 9 10 11 11 10 10 10 11 12 13 13 14
12 11 11 10 10 10 9 8 8 8 7 7 7 7 7 7 8 8 8 8 8 8 9 9 9 10 10 10 9 9 8 8 8 7 6 6 6 6 6 6 7 7 8 9 10 11 12 13 15 16 17 18 18 18 19 19 17 16 15 15 15 15 15 15 13 11 9 7 6 6 6 6 6 7 8 10 11 12 11 10 10 9 10 11 12 13
13 13 12 12 12 11 10 10 9 9 8 8 8 8 8 8 8 8 8 9 9 9 9 9 10 10 10 10 10 9 9 9 9 8 7 6 6 6 6 6 7 7 7 7 7 7 7 8 9 11 13 15 15 14 16 17 17 15 13 14 14 14 14 14 12 9 7 6 6 6 6 6 6 6 7 9 10 12 12 12 10 8 8 9 10 11
Wind_Direction
206 207 207 206 201 197 197 203 204 202 200 200 199 198 199 199 200 201 203 204 206 207 207 205 205 205 206 208 212 217 222 223 225 230 241 251 258 265 245 122 128 133 135 135 138 140 142 141 143 147 149 148 147 146 145 146 147 146 142 137 131 127 126 124 123 122 127 141 156 174 211 245 236 205 173 153 144 143 142 334 336 334 328 308 302 329
199 199 197 198 196 193 193 199 202 202 201 200 200 201 201 200 200 201 203 205 208 211 211 210 209 209 210 212 217 222 225 227 230 234 240 243 241 227 164 133 130 131 132 133 135 139 139 139 143 149 153 153 153 154 157 162 166 170 170 167 162 157 155 153 156 160 169 182 196 205 218 232 227 209 187 170 163 168 240 315 318 310 304 305 299 296
185 186 187 191 191 190 190 192 196 201 204 204 203 203 203 203 203 203 204 206 211 215 216 215 214 214 216 219 224 230 232 232 234 236 232 224 211 191 163 143 136 134 135 136 138 140 140 139 141 143 146 147 152 161 176 190 203 208 210 207 205 205 204 208 212 215 219 222 225 227 228 231 228 217 205 194 189 203 260 285 292 294 297 299 294 290
179 178 182 184 186 189 190 190 192 197 202 205 205 205 205 204 205 207 208 209 213 218 219 217 216 217 219 222 222 223 227 226 223 218 210 197 186 175 159 146 140 139 139 140 142 144 146 147 145 141 135 128 122 197 274 274 271 267 257 247 241 239 238 240 243 245 246 247 246 244 241 239 237 233 227 223 222 231 252 265 278 289 292 290 291 291
177 178 180 179 180 186 192 192 193 195 198 201 203 204 204 204 205 207 209 210 212 215 216 213 211 212 214 210 195 179 178 181 179 176 174 170 165 156 147 143 142 142 143 145 148 152 155 157 160 157 149 109 332 317 307 305 303 300 292 279 268 262 260 259 261 261 261 261 260 257 253 249 246 242 240 237 234 235 243 257 271 282 288 290 294 294
176 179 180 178 180 185 190 192 193 194 194 196 198 200 201 203 203 203 203 203 204 204 202 198 196 196 194 185 173 163 154 152 152 151 147 143 140 138 139 140 142 145 148 151 157 163 169 176 189 207 249 297 307 309 309 313 313 309 301 292 286 284 283 282 281 280 279 277 273 269 263 257 251 247 244 241 238 237 239 249 262 276 288 295 296 295
174 178 180 180 183 187 189 190 192 194 193 192 193 195 196 198 198 197 195 193 191 189 186 182 179 178 176 174 173 169 163 160 157 153 146 139 134 133 136 139 144 149 155 161 168 177 186 200 222 248 272 292 303 303 300 298 297 290 287 287 292 297 300 301 300 299 298 296 291 284 275 265 257 250 246 243 240 238 238 242 250 263 277 288 293 296
169 175 179 182 185 187 188 188 191 194 195 193 191 189 189 190 191 189 187 185 183 181 180 178 173 170 168 170 173 174 172 169 166 162 157 151 147 144 144 148 152 158 164 170 180 192 204 220 238 255 268 272 274 272 268 264 263 270 280 288 295 301 304 306 307 307 308 308 305 298 287 275 263 254 248 243 240 238 236 237 240 249 261 274 283 288
169 173 180 185 185 183 182 185 189 193 196 197 194 189 185 182 183 184 182 180 180 181 182 180 176 171 168 170 172 173 174 172 171 169 169 167 165 164 164 167 170 174 178 181 186 196 210 224 232 236 241 243 248 256 263 270 277 284 290 295 298 301 303 305 307 310 312 314 315 313 305 289 273 261 253 246 242 239 237 235 236 239 247 258 273 284
176 175 178 184 187 185 181 182 186 191 194 197 198 196 189 182 179 179 181 181 181 183 185 185 182 177 173 173 174 175 176 176 175 175 177 179 182 185 189 193 196 199 203 204 203 203 209 217 222 225 231 239 251 263 274 284 290 295 297 298 299 300 300 303 307 310 313 316 319 326 326 315 298 279 264 254 247 243 239 236 235 235 237 244 257 271
176 178 178 181 185 188 186 184 185 187 190 193 196 198 197 190 184 180 180 182 183 184 186 188 188 184 180 179 179 180 182 183 182 182 183 186 191 198 207 212 218 222 226 228 228 228 227 225 229 234 242 251 263 274 284 291 296 299 299 298 297 297 298 302 307 311 312 312 315 327 339 351 343 331 305 279 260 250 245 240 238 235 234 236 241 250
173 177 180 182 183 185 186 186 185 184 185 187 188 189 191 193 193 190 185 184 184 186 187 188 190 190 189 188 187 188 190 192 192 193 194 198 204 211 219 225 230 235 238 240 242 244 244 243 245 251 258 265 273 281 288 293 297 298 297 295 292 292 296 302 308 311 311 302 289 297 341 21 29 23 9 342 301 267 252 246 242 239 235 234 235 242
176 178 180 183 183 183 183 181 180 180 184 186 185 185 186 191 195 196 192 190 188 188 188 188 188 189 192 195 195 196 198 201 203 206 211 218 226 233 239 244 246 248 249 249 251 252 254 256 258 263 268 274 279 284 289 294 297 296 292 286 284 287 296 303 308 310 310 301 285 268 322 83 77 64 52 41 26 297 238 239 245 241 238 235 236 244
175 176 178 179 183 185 184 180 178 178 184 189 192 193 193 192 194 194 193 192 191 190 191 190 188 188 191 196 200 203 204 207 211 216 223 232 241 249 256 260 262 263 263 261 261 262 262 264 266 268 273 277 281 284 289 293 293 290 282 271 267 272 284 287 292 300 307 304 290 212 166 150 135 121 103 96 106 141 165 203 223 233 232 230 236 248
174 175 176 181 185 187 187 185 184 185 189 192 196 197 196 192 191 191 189 188 188 189 190 191 190 190 192 196 201 205 209 212 217 222 228 238 247 255 261 265 267 270 269 267 267 268 268 267 268 269 272 276 280 284 288 289 285 271 226 205 228 250 260 268 280 292 300 297 269 215 186 182 174 171 170 171 187 211 223 233 234 228 219 209 212 232
180 179 181 186 189 191 191 191 190 190 191 193 195 195 192 188 189 190 189 185 184 185 183 181 181 187 197 202 204 207 211 215 220 227 234 240 249 257 262 263 266 268 269 268 268 269 269 268 266 266 268 271 275 279 281 278 262 192 182 216 237 250 260 270 279 286 287 274 244 213 203 202 204 202 197 197 206 221 237 246 246 242 231 215 208 218
185 186 188 189 190 192 193 193 192 192 193 193 194 194 193 190 189 189 189 185 182 179 178 176 171 174 195 208 211 211 213 216 223 231 237 240 247 256 261 262 262 264 268 268 268 266 266 263 261 258 258 260 262 262 258 235 182 176 214 234 243 250 257 267 274 278 276 262 237 212 207 211 214 212 207 206 212 226 242 251 253 251 240 231 224 223
190 191 191 191 192 192 193 192 193 195 196 194 193 193 193 192 190 189 189 186 181 177 178 179 178 175 178 188 207 212 213 215 221 230 236 238 243 251 257 259 260 263 266 266 265 262 257 253 248 245 244 244 242 234 218 197 191 208 228 238 241 242 243 247 257 267 273 266 240 207 198 208 215 216 214 212 216 224 242 258 264 260 251 243 237 233
196 197 196 195 196 195 194 193 194 196 196 196 194 191 189 189 189 189 188 187 184 182 181 183 184 183 178 171 193 205 208 210 217 226 230 234 241 248 253 256 258 260 261 258 254 250 243 238 234 232 230 230 227 218 205 199 201 212 231 237 234 231 231 241 254 267 275 263 223 187 195 205 209 210 210 210 209 216 237 267 283 284 278 268 259 252
203 203 203 203 200 197 195 198 201 202 201 200 196 192 188 188 188 188 187 188 188 188 189 189 191 195 197 194 196 201 204 206 213 220 225 231 241 249 253 254 254 253 247 242 237 232 225 221 221 220 221 222 221 217 212 208 209 214 224 230 226 225 233 249 266 275 271 229 182 171 190 196 201 203 204 207 210 217 236 251 267 280 284 283 280 274
211 210 212 213 208 201 199 204 206 207 206 202 196 191 188 188 188 189 191 192 192 192 194 194 196 200 205 204 201 202 210 208 208 214 225 235 246 253 255 250 241 231 220 218 216 215 210 212 215 217 218 221 222 222 221 219 215 213 213 218 219 225 241 263 279 282 255 190 167 162 181 192 200 207 211 215 221 229 235 239 241 249 258 263 268 271
221 217 215 216 214 211 211 210 207 206 205 200 195 191 191 190 190 192 195 197 196 195 194 194 195 197 203 204 205 210 221 216 213 219 231 235 242 246 249 230 211 201 195 199 202 204 204 210 215 220 222 226 228 231 232 229 221 211 205 206 214 228 248 272 292 295 194 157 153 154 168 181 192 208 222 231 236 237 238 241 245 250 252 249 249 254
226 218 209 206 207 211 214 208 201 198 197 198 198 199 199 199 198 199 201 201 200 197 195 191 191 195 201 205 210 217 225 226 227 230 233 226 219 218 214 193 184 183 183 191 196 199 205 215 223 229 233 237 240 242 241 233 219 206 199 200 209 224 248 276 8 85 116 132 143 156 172 177 191 206 221 235 244 246 249 249 249 247 248 243 241 244
168 181 188 186 182 181 184 188 187 186 186 189 193 198 200 202 202 202 201 200 199 197 194 192 191 191 196 204 209 213 221 224 226 226 223 216 207 194 181 174 174 176 180 191 199 206 216 230 241 247 251 254 255 253 246 227 208 194 192 195 203 213 219 193 132 127 139 156 172 185 193 200 208 216 224 234 242 249 254 256 252 245 240 241 246 249
154 157 165 166 164 162 164 169 173 175 176 178 182 184 184 184 184 184 184 187 189 190 190 187 181 177 186 196 203 209 216 220 220 217 215 206 196 187 188 180 178 179 184 197 210 221 231 246 256 261 264 264 262 255 236 207 188 180 184 188 190 190 186 177 176 183 191 199 205 212 220 223 226 228 229 233 242 250 257 261 262 258 254 251 252 255
156 154 157 158 157 156 155 159 164 166 168 170 173 175 175 175 175 176 177 179 182 184 183 176 174 178 187 195 202 208 212 213 211 209 209 199 190 191 206 200 195 194 195 207 220 232 244 257 265 268 267 262 251 227 192 170 167 173 179 180 182 184 184 182 183 188 195 206 217 223 226 230 231 231 231 235 242 251 259 266 269 269 267 264 260 255
146 150 152 154 153 151 151 154 159 162 165 168 171 174 177 177 177 177 176 179 183 184 181 174 174 183 188 190 195 201 202 201 198 200 202 200 195 194 205 210 209 205 208 217 229 242 254 266 271 270 263 244 212 184 165 156 158 166 171 175 180 185 189 192 193 194 194 199 206 216 221 225 227 226 229 235 240 248 255 264 270 275 275 271 265 257
133 137 141 143 146 148 149 152 157 161 165 167 172 177 183 187 186 183 183 186 188 189 188 185 180 176 176 171 179 190 194 193 192 194 198 201 203 202 200 208 212 214 219 231 244 255 263 268 269 264 242 208 188 177 170 165 163 163 168 176 184 192 199 210 217 216 209 200 197 198 205 217 223 227 232 238 243 247 250 255 261 266 267 265 262 258
133 133 133 136 141 145 147 151 155 160 164 168 172 178 186 194 196 194 193 194 193 192 192 190 184 173 165 170 182 192 197 201 201 202 204 203 205 210 209 209 214 221 227 241 257 264 263 262 255 234 202 185 180 179 178 177 176 176 178 184 195 207 226 251 262 257 240 224 211 205 203 208 215 225 234 240 246 250 253 255 257 259 257 256 255 255
138 138 139 141 144 147 148 149 150 152 156 165 172 178 186 193 194 189 187 191 192 190 188 185 181 176 171 174 184 197 206 207 208 210 210 204 200 202 210 204 209 218 224 230 235 235 234 234 220 196 183 181 183 184 187 189 190 192 195 202 214 235 263 284 293 289 275 255 239 228 222 221 223 228 235 241 246 252 256 260 263 265 262 258 255 254
141 142 143 145 148 150 152 151 149 148 152 163 173 179 184 188 185 177 174 178 181 181 179 176 176 178 179 177 171 177 207 199 202 205 206 199 194 194 199 188 193 209 219 207 185 170 167 167 177 184 181 186 192 194 198 201 204 209 213 221 234 257 279 293 299 298 289 276 261 250 244 241 240 242 245 248 252 257 262 266 270 271 269 263 258 256
143 144 145 146 148 151 154 156 157 158 162 170 176 179 182 183 180 175 171 171 173 174 173 173 175 180 188 191 185 172 167 170 179 187 189 187 187 192 196 186 186 203 223 218 214 196 155 139 161 185 192 199 205 208 211 214 218 223 228 236 249 266 283 293 297 296 290 281 271 264 260 258 258 258 260 261 263 265 268 270 272 272 269 265 261 259
148 149 150 151 152 154 156 160 163 167 172 176 179 183 184 184 180 178 175 175 180 184 187 186 185 185 190 195 193 186 171 167 167 172 179 181 184 191 199 201 203 215 237 244 248 245 223 191 190 201 210 217 221 225 227 229 232 235 240 249 260 272 282 289 292 290 284 278 273 270 269 269 270 271 271 272 272 272 272 272 272 270 266 263 263 263
156 157 158 160 161 162 164 167 169 172 175 178 181 186 190 191 191 191 194 202 211 221 223 217 207 196 188 186 185 182 178 183 183 183 190 194 198 205 214 218 224 233 244 250 253 252 249 247 240 232 227 227 230 234 237 241 244 246 250 256 265 274 280 284 284 281 278 276 275 275 276 276 277 277 277 277 275 274 272 270 267 261 258 259 261 263
165 167 168 170 172 173 175 177 180 183 185 187 190 195 201 204 209 215 223 235 245 251 251 244 232 217 200 186 177 171 173 185 193 199 208 209 216 225 230 232 235 238 239 239 241 239 237 243 245 245 246 243 240 240 242 245 248 252 256 261 267 272 276 278 278 277 277 279 280 281 281 281 281 281 280 279 275 271 267 262 255 246 242 247 253 257
174 175 177 179 181 183 185 188 192 196 200 204 208 213 217 222 228 233 239 243 246 246 245 240 234 227 217 201 178 167 171 184 197 211 223 227 231 233 233 233 236 237 232 229 227 225 225 234 241 248 253 258 257 249 244 244 248 253 259 265 269 272 275 278 280 282 283 284 285 285 284 284 283 282 280 278 274 268 262 255 247 237 228 229 236 245
181 182 183 185 188 190 193 196 200 204 210 215 219 223 227 230 234 236 238 238 235 231 225 221 219 216 215 209 198 191 196 209 223 234 245 251 252 246 236 235 239 239 233 229 226 227 229 236 247 253 255 251 250 249 248 253 257 262 268 271 274 277 280 282 284 286 287 287 287 286 285 283 281 279 275 273 270 267 262 257 251 242 233 226 223 225
187 188 189 190 193 196 200 204 208 212 217 221 225 227 228 228 228 227 225 222 217 212 208 206 205 207 210 210 210 215 225 239 248 255 261 266 267 261 250 244 244 245 242 239 237 237 236 241 250 256 256 249 249 255 262 270 274 276 277 277 278 281 284 286 288 288 288 287 286 284 283 280 276 271 267 265 263 261 258 256 254 250 244 239 233 228
193 194 194 195 198 202 206 211 216 218 220 221 220 219 216 212 208 204 202 200 199 198 198 199 201 205 211 216 221 229 238 248 255 260 264 268 269 269 264 256 251 250 250 248 247 245 243 243 244 247 254 257 259 262 267 273 277 280 282 284 284 284 286 289 290 290 289 286 284 281 278 274 268 262 256 254 254 252 252 252 253 253 252 250 247 242
196 196 195 196 197 200 202 206 209 210 208 206 202 199 196 192 189 186 185 186 188 191 193 198 203 210 218 226 234 241 247 252 257 261 263 265 267 268 267 262 258 255 254 252 250 249 249 248 248 249 251 258 264 267 270 272 275 280 286 289 290 290 292 293 292 290 287 282 278 274 269 264 259 253 249 248 248 249 250 251 252 252 253 254 254 252
192 189 186 186 189 192 195 196 195 192 190 189 187 186 184 184 183 183 185 186 189 192 197 203 211 219 228 236 243 249 254 256 259 261 261 261 262 262 263 261 259 257 255 253 252 252 253 253 254 255 257 261 265 268 270 272 277 282 286 287 290 294 298 297 294 288 282 276 270 265 258 252 248 245 244 244 246 248 250 252 252 253 253 254 254 254
180 177 175 176 179 183 185 185 183 180 180 180 179 179 180 181 183 185 188 190 193 198 204 210 217 224 233 241 249 255 259 261 261 260 259 258 257 256 256 256 256 255 254 254 253 254 255 257 259 261 263 266 268 270 271 275 280 283 284 286 291 297 301 299 295 287 281 275 269 263 252 244 241 241 243 244 245 248 251 252 253 253 253 253 253 253
167 165 166 171 176 181 182 181 178 175 174 174 175 178 180 184 188 191 193 196 199 204 210 217 225 234 242 250 257 261 264 264 262 259 257 254 252 251 251 251 252 252 253 254 254 255 257 259 261 264 268 272 272 272 272 277 281 283 284 286 290 293 294 292 289 286 285 280 276 268 260 253 250 249 248 246 247 248 251 252 253 254 253 253 253 252
160 162 166 173 179 183 185 183 180 177 174 174 175 178 182 187 192 197 202 206 211 216 222 231 240 249 256 264 269 272 271 268 263 259 254 250 247 246 246 247 248 249 251 253 254 256 259 261 263 267 271 274 275 275 275 276 278 280 282 285 285 280 275 278 283 285 283 282 280 276 271 265 259 255 253 252 251 251 251 252 252 253 253 252 251 250
163 166 171 178 183 187 188 189 188 187 186 187 187 188 191 196 201 207 212 216 223 228 234 242 249 256 261 269 276 282 282 276 267 257 251 246 244 242 242 242 243 245 247 251 254 258 260 264 267 271 274 274 274 274 273 274 275 277 280 283 283 281 281 282 283 284 285 286 286 284 278 269 263 260 259 257 255 253 251 249 249 249 250 250 249 248
177 177 179 183 187 191 193 196 199 202 204 207 208 209 210 215 219 222 226 229 233 237 240 246 250 250 251 260 271 280 285 284 274 258 245 239 239 238 238 237 238 240 243 247 252 257 260 264 269 272 273 272 271 270 270 271 272 273 276 280 281 282 283 284 285 287 291 293 293 290 281 270 265 263 262 259 254 250 247 246 245 244 245 246 246 246
203 199 197 196 198 201 204 208 211 214 217 220 222 223 223 226 230 233 236 238 240 241 244 247 250 251 253 257 263 269 271 274 274 266 250 237 234 232 233 233 235 237 241 245 250 254 258 262 264 266 266 266 265 266 268 269 269 270 273 277 280 280 280 282 285 290 295 297 295 291 280 271 268 267 265 261 255 249 245 242 241 241 240 241 242 243
226 225 223 223 222 222 224 224 225 226 226 228 229 230 231 233 236 239 241 243 244 245 246 248 251 253 257 260 263 265 268 270 270 267 258 247 241 237 234 234 236 239 243 247 251 254 257 258 259 259 260 259 258 259 264 267 267 268 271 275 276 276 277 281 286 291 294 294 291 284 276 272 274 276 276 274 269 259 247 239 236 236 237 238 239 241
237 237 238 238 239 239 239 237 237 236 235 235 236 236 237 238 240 243 245 246 246 248 249 251 253 255 257 258 260 262 265 268 269 268 262 255 249 246 244 244 244 247 250 253 256 258 260 260 260 258 258 259 259 259 261 264 265 267 269 270 270 271 273 278 284 289 291 289 282 272 265 267 271 276 281 285 285 277 261 245 235 233 234 237 239 240
240 242 244 244 245 245 245 245 244 244 242 242 243 243 244 243 244 245 246 247 248 249 251 252 253 255 256 258 259 259 260 263 265 266 265 262 259 257 255 253 253 255 258 262 265 268 271 273 270 266 264 262 261 261 260 261 262 263 263 262 263 266 270 275 281 286 288 282 272 262 259 264 270 276 282 287 290 288 281 265 246 233 232 234 238 240
242 244 246 246 247 247 248 248 249 249 249 248 249 249 248 248 246 245 245 246 248 249 250 252 253 254 254 256 258 258 258 259 261 263 264 264 264 264 263 261 260 261 263 267 275 284 290 289 286 282 275 269 267 264 261 258 258 257 256 257 260 264 267 273 278 281 280 273 264 258 258 262 269 277 284 287 290 291 291 283 269 251 240 237 238 240
Height
802 803 805 806 807 808 809 810 810 811 812 813 814 815 816 816 817 818 819 820 820 821 821 821 821 822 822 822 823 823 824 824 825 825 825 826 826 826 826 826 826 826 827 827 828 828 828 828 829 829 829 829 829 829 829 830 830 830 830 830 830 830 830 830 830 831 831 831 832 832 832 832 832 832 833 833 834 834 835 835 835 836 836 836 836 836
802 803 805 806 806 807 808 809 810 811 811 812 813 814 815 816 816 817 818 819 819 820 821 821 821 821 821 822 822 823 823 824 824 825 825 825 825 825 825 826 826 826 827 827 827 828 828 828 828 829 829 829 829 829 829 829 829 829 829 829 829 829 829 829 830 830 830 831 831 831 831 831 831 832 832 833 833 834 834 835 835 835 835 836 836 836
801 803 804 805 806 807 808 809 810 810 811 812 813 813 814 815 816 816 817 818 819 819 820 820 820 821 821 821 822 822 823 823 824 824 824 825 825 825 825 826 826 826 827 827 827 828 828 828 828 828 828 829 829 829 829 829 829 829 829 829 828 829 829 829 829 829 830 830 830 830 831 831 831 831 832 832 833 833 834 834 834 835 835 835 836 836
801 802 803 804 806 806 807 808 809 810 811 812 812 813 813 814 815 816 816 817 818 818 819 820 820 820 820 821 822 822 822 823 823 823 824 824 824 825 825 825 826 826 827 827 827 828 828 828 828 828 828 828 828 828 828 828 828 828 828 828 828 828 828 828 829 829 829 829 829 830 830 830 831 831 831 832 832 832 833 833 834 834 834 835 835 836
800 801 802 804 805 806 807 807 808 809 810 811 812 812 813 813 814 815 816 816 817 818 818 819 819 820 820 821 821 822 822 822 823 823 823 824 824 824 825 825 826 826 827 827 827 827 827 827 828 828 828 828 828 828 828 828 828 828 828 828 827 828 828 828 828 828 828 828 829 829 829 830 830 830 831 831 831 832 832 833 833 834 834 834 835 835
800 801 802 803 804 805 806 807 807 808 809 810 811 811 812 813 813 814 815 816 817 817 818 818 819 819 820 820 821 821 822 822 822 823 823 823 824 824 825 825 826 826 826 827 827 827 827 827 827 827 827 828 828 828 828 828 827 827 827 827 827 827 827 827 827 827 828 828 828 828 828 829 829 829 830 830 831 831 831 832 832 833 833 834 834 834
799 801 801 803 804 804 805 806 807 807 808 809 810 811 811 812 813 814 815 815 816 817 817 818 818 819 819 820 820 820 821 821 822 822 823 823 824 824 825 825 825 826 826 826 826 826 826 827 827 827 827 827 827 827 827 827 827 827 827 827 826 826 827 827 827 827 827 827 827 827 828 828 828 829 829 829 830 830 831 831 832 832 833 833 834 834
798 800 801 802 803 804 805 806 806 806 807 808 809 810 811 812 812 813 814 815 816 817 817 818 818 818 819 819 820 820 821 821 821 822 822 823 823 824 824 824 825 825 826 826 826 826 826 826 826 827 827 827 827 827 827 827 826 826 826 826 826 826 826 826 826 826 826 826 827 827 827 827 827 828 828 829 829 829 830 831 831 832 832 833 833 833
796 798 800 801 802 803 804 805 805 806 806 807 808 809 810 811 812 813 814 815 816 816 817 817 818 818 818 818 819 820 820 821 821 822 822 822 822 823 823 824 824 825 825 825 826 826 826 826 826 826 826 826 826 826 826 826 826 826 826 826 826 826 826 826 826 826 826 826 826 826 826 827 827 827 828 828 828 829 829 830 830 831 831 832 832 833
796 797 798 800 801 802 803 803 804 805 806 806 807 808 809 810 811 812 813 814 815 816 816 817 817 817 817 818 819 819 820 821 821 821 822 822 822 823 823 823 824 824 824 825 825 825 826 826 826 826 826 826 826 826 826 826 826 826 826 826 825 825 825 825 826 826 826 826 826 826 826 826 827 827 827 827 828 828 829 829 830 830 831 831 831 832
796 797 798 799 800 801 801 802 802 804 805 806 807 808 808 809 810 811 812 813 814 815 816 816 816 817 817 817 818 819 820 820 821 821 821 821 822 822 823 823 823 824 824 824 824 825 825 825 825 825 825 825 825 825 825 825 825 825 825 825 825 825 825 825 825 825 825 825 826 826 826 826 826 827 827 827 827 828 828 828 829 829 830 830 831 831
795 796 798 798 799 800 801 801 802 803 804 805 806 807 808 808 809 810 811 812 813 814 815 815 816 816 816 817 818 818 819 820 820 820 821 821 821 822 822 823 823 823 823 824 824 824 824 824 825 825 825 825 825 825 825 825 825 824 824 824 824 824 825 825 825 825 825 825 825 826 826 826 826 826 827 827 827 827 828 828 828 829 829 830 830 831
795 796 797 798 799 799 800 800 801 803 804 804 805 805 806 807 808 809 810 811 812 813 814 814 815 815 816 816 817 818 819 819 819 820 820 821 821 821 821 822 822 822 823 823 823 823 823 824 824 824 824 824 824 824 824 824 824 824 824 824 824 824 824 824 824 825 825 825 825 825 826 826 826 826 827 827 827 827 827 828 828 828 828 829 829 830
795 796 796 797 798 798 799 799 800 801 802 802 803 803 804 805 807 808 809 811 811 812 813 814 814 815 815 816 817 817 818 818 819 819 820 820 820 821 821 821 821 822 822 822 822 822 823 823 823 823 823 823 823 823 823 823 823 823 823 824 824 824 824 824 824 824 824 825 825 825 825 826 826 826 826 827 827 827 827 827 827 828 828 829 829 829
794 795 796 796 797 797 798 798 799 799 800 801 802 803 804 805 806 807 808 810 811 812 813 813 814 814 815 816 816 817 817 818 818 818 819 819 819 820 820 821 821 821 821 821 821 822 822 822 822 822 822 822 822 823 823 823 823 823 823 823 824 824 824 824 824 824 824 824 824 825 825 825 826 826 826 826 826 827 827 827 827 827 828 828 828 829
792 793 794 795 795 796 796 797 798 798 799 800 801 802 804 805 806 806 807 808 810 811 812 812 813 814 815 815 816 816 816 817 817 817 818 818 819 819 820 820 820 820 820 821 821 821 821 821 821 821 822 822 822 822 822 822 822 823 823 823 823 823 823 823 824 824 824 824 824 824 825 825 825 826 826 826 826 826 826 827 827 827 827 828 828 828
791 791 792 793 794 794 795 796 797 797 798 800 801 802 803 804 805 806 807 808 809 810 811 811 813 814 814 815 815 815 816 816 816 817 817 818 818 818 819 819 819 820 820 820 820 820 820 821 821 821 821 821 821 821 822 822 822 822 823 823 823 823 823 823 823 823 823 824 824 824 824 825 825 825 825 826 826 826 826 826 826 827 827 827 828 828
790 791 791 792 792 793 794 795 796 797 798 799 800 801 802 804 805 806 806 807 808 809 810 811 811 812 813 813 814 814 815 815 816 816 817 817 817 818 818 818 819 819 819 819 819 819 820 820 820 820 821 821 821 821 821 822 822 822 823 823 823 823 823 823 823 823 823 823 823 824 824 824 825 825 825 825 826 826 826 826 826 826 827 827 827 827
789 790 791 791 791 792 793 794 795 796 797 798 799 801 802 803 804 805 806 807 807 808 809 810 810 811 811 812 812 813 814 814 815 816 816 816 817 817 817 818 818 818 818 818 819 819 819 819 819 820 820 820 821 821 821 821 822 822 822 822 822 822 823 823 823 823 823 823 823 823 824 824 824 824 825 825 825 825 826 826 826 826 826 826 827 827
788 789 790 790 791 791 792 793 794 795 796 797 798 800 801 802 803 804 805 806 807 807 808 809 810 810 811 811 811 812 813 814 814 815 816 816 816 816 816 817 817 817 818 818 818 818 818 819 819 819 820 820 820 821 821 821 821 822 822 822 822 822 822 822 822 822 822 822 823 823 823 824 824 824 824 824 825 825 825 826 826 826 826 826 826 827
788 788 789 789 790 791 792 792 793 795 796 797 798 799 800 801 803 804 804 805 806 807 808 809 809 810 810 811 811 812 812 813 814 814 815 815 815 816 816 816 816 817 817 817 817 818 818 818 818 819 819 819 820 820 820 821 821 821 821 822 822 822 822 822 822 822 822 822 822 823 823 823 823 823 824 824 824 824 825 825 825 826 826 826 826 826
788 788 789 790 790 791 791 792 794 795 796 797 798 799 800 801 802 803 804 805 806 806 807 808 809 809 810 810 811 811 812 813 813 814 814 815 815 815 815 815 816 816 816 817 817 817 817 818 818 818 819 819 819 820 820 820 820 821 821 821 821 821 821 821 821 821 821 822 822 822 823 823 823 823 823 823 824 824 824 824 825 825 826 826 826 826
788 788 789 790 791 791 792 793 794 795 796 797 798 798 799 800 801 802 803 804 805 806 807 808 808 809 809 810 811 811 811 812 813 813 813 814 814 814 814 815 815 816 816 816 816 817 817 817 818 818 818 819 819 819 819 820 820 820 821 821 821 821 821 821 821 821 821 821 822 822 822 822 823 823 823 823 823 823 823 824 824 824 825 825 826 826
788 788 789 790 791 791 792 793 794 795 796 797 798 799 800 801 801 802 803 804 805 806 806 807 808 808 809 810 810 811 811 811 812 812 813 813 813 814 814 814 815 815 816 816 816 816 817 817 817 817 818 818 818 818 819 819 819 820 820 821 821 821 821 821 821 821 821 821 822 822 822 822 822 822 822 822 823 823 823 823 824 824 824 824 825 825
788 788 789 790 791 791 792 793 794 795 796 796 798 799 800 801 801 802 803 804 805 806 806 807 807 808 809 809 810 810 810 811 811 812 812 812 813 813 813 814 814 815 815 816 816 816 816 816 817 817 817 817 817 818 818 818 819 819 820 820 821 821 821 821 821 821 821 821 821 821 821 821 822 822 822 822 822 822 823 823 823 823 823 824 824 824
788 789 790 790 791 791 792 793 794 795 796 796 797 798 799 800 801 802 803 803 804 805 806 806 807 807 808 809 809 809 810 810 811 811 811 812 812 813 813 813 814 814 815 815 815 816 816 816 816 816 816 816 817 817 817 818 819 819 820 820 820 820 820 821 821 821 821 821 821 821 821 821 821 821 821 822 822 822 822 822 822 823 823 823 823 823
788 789 790 791 791 791 792 793 794 795 796 797 798 798 799 800 801 801 802 803 803 804 805 806 806 807 807 808 808 809 809 809 810 810 811 811 812 812 812 813 813 814 814 815 815 815 815 816 816 816 816 816 816 816 817 818 818 819 819 819 819 820 820 820 820 820 821 821 821 821 821 821 821 821 821 821 821 821 822 822 822 822 822 822 822 822
789 789 790 791 791 792 792 793 794 795 796 797 798 798 799 800 800 801 801 802 803 803 804 805 806 806 807 807 808 808 808 809 809 810 810 811 811 811 812 812 813 813 814 814 814 815 815 815 815 815 815 815 816 816 816 817 817 818 818 819 819 819 819 820 820 820 820 820 820 821 821 821 821 821 821 821 821 821 821 821 821 821 821 822 821 821
789 789 790 791 791 792 793 793 794 795 796 797 797 798 799 799 800 800 801 801 802 803 804 804 805 806 806 806 807 807 808 808 809 809 810 810 811 811 811 812 812 812 813 813 814 814 814 814 814 814 815 815 815 816 816 816 817 817 817 818 818 819 819 819 819 819 819 819 820 820 820 820 820 820 820 820 820 821 821 821 821 821 821 821 821 821
789 789 790 791 791 792 793 794 794 795 796 797 797 798 798 799 800 800 801 801 802 802 803 804 804 805 806 806 806 807 807 807 808 808 809 809 810 810 811 811 811 812 812 813 813 813 813 814 814 814 814 815 815 816 816 816 816 817 817 817 818 818 818 818 818 818 818 819 819 819 819 819 819 819 819 819 820 820 820 820 820 820 820 820 820 820
789 790 790 791 791 792 793 794 794 795 796 796 797 797 798 799 799 800 801 801 802 802 803 803 804 805 805 806 806 806 806 806 807 807 808 809 809 810 810 811 811 811 812 812 812 813 813 813 813 814 814 814 815 815 816 816 816 816 816 817 817 817 817 817 817 817 817 818 818 818 818 818 818 818 818 818 819 819 819 819 819 819 819 819 819 819
790 790 791 791 792 793 793 794 794 795 796 796 797 797 798 799 799 800 801 801 801 802 803 803 804 804 805 805 805 806 806 806 806 807 807 808 809 809 810 810 811 811 811 812 812 812 813 813 813 813 814 814 814 815 815 815 816 816 816 816 816 816 816 816 816 816 816 816 817 817 817 817 817 817 817 817 817 818 818 818 818 818 818 818 818 818
790 791 791 792 792 793 794 794 795 795 796 796 797 797 798 799 799 800 801 801 801 802 802 803 803 804 804 804 805 805 805 806 806 807 807 808 808 809 809 810 810 810 811 811 811 812 812 812 813 813 813 814 814 814 814 815 815 815 815 816 816 816 816 816 816 816 816 816 816 816 816 816 816 816 816 816 816 816 816 817 817 817 817 817 817 817
790 791 791 792 792 793 794 794 795 795 796 796 797 798 798 799 799 800 800 801 801 802 802 802 803 803 803 804 804 805 805 806 806 806 807 807 808 808 809 809 810 810 810 811 811 811 812 812 812 813 813 813 813 813 814 814 814 814 815 815 815 815 815 815 815 815 815 815 815 815 815 815 815 815 815 815 815 815 815 816 816 816 817 816 816 816
790 791 791 792 793 793 794 794 795 796 796 796 797 797 798 799 799 800 800 801 801 801 801 802 802 803 803 803 804 804 805 805 806 806 806 807 807 808 808 809 809 810 810 810 811 811 811 811 812 812 812 812 812 813 813 813 813 813 813 814 814 814 814 814 814 814 814 814 814 814 813 813 813 813 813 814 814 814 814 814 815 815 816 816 816 816
790 791 791 792 793 793 794 794 795 796 796 796 797 797 798 798 799 799 800 800 801 801 801 801 802 802 803 803 804 804 804 805 805 806 806 806 807 807 808 808 808 809 809 810 810 810 811 811 811 811 811 811 812 812 812 812 812 812 812 813 813 813 813 813 813 813 813 813 812 812 812 812 812 812 812 812 812 812 813 813 813 814 814 815 815 816
790 791 791 792 792 793 794 794 795 795 796 796 796 797 798 798 798 799 799 800 800 800 801 801 801 802 802 803 803 804 804 804 805 805 806 806 806 807 807 807 808 808 809 809 809 810 810 810 811 811 811 811 811 811 811 811 811 811 812 812 812 812 812 812 812 812 811 811 811 811 811 811 811 811 811 811 811 811 811 812 812 812 813 813 814 814
790 790 791 791 792 793 793 794 794 795 795 796 796 797 797 797 798 798 799 799 800 800 800 801 801 802 802 803 803 803 804 804 804 805 805 805 806 806 806 807 807 808 808 808 809 809 810 810 810 810 810 810 810 810 810 811 811 811 811 811 811 811 811 811 811 811 810 810 810 810 810 810 810 810 810 810 810 810 811 811 811 811 812 812 812 813
790 790 791 791 792 792 793 793 794 794 795 795 796 796 796 797 797 798 798 799 799 800 800 801 801 801 802 802 803 803 803 804 804 804 804 805 805 805 806 806 807 807 807 808 808 809 809 809 809 810 810 809 809 809 810 810 810 810 810 809 809 810 810 810 809 809 809 809 809 809 809 809 809 809 809 809 809 810 810 810 810 811 811 811 811 812
789 790 790 791 791 792 792 793 793 794 794 795 795 796 796 796 797 797 798 798 799 799 800 800 801 801 801 802 802 802 803 803 803 804 804 804 804 805 805 806 806 806 807 807 807 808 808 808 808 808 809 809 809 809 809 809 809 809 809 808 808 808 808 808 808 808 808 807 807 807 807 808 808 808 808 808 808 809 809 809 809 810 810 810 811 811
789 790 790 791 791 792 792 792 793 793 794 794 795 795 796 796 796 797 797 798 798 799 799 800 800 801 801 801 801 802 802 802 803 803 803 804 804 804 804 805 805 806 806 806 806 806 807 807 807 807 807 808 808 807 807 807 808 808 808 807 807 806 807 807 807 806 806 806 806 806 806 807 807 807 807 807 807 808 808 808 808 809 809 809 809 810
788 789 790 790 791 791 792 792 793 793 794 794 794 795 795 796 796 796 797 797 798 798 799 799 800 800 801 801 801 801 801 802 802 802 802 803 803 803 804 804 804 805 805 805 806 806 806 806 806 806 806 806 806 806 806 806 806 807 807 806 806 806 806 806 806 806 806 806 806 806 806 806 806 806 806 806 806 806 807 807 807 808 808 808 808 809
788 789 790 790 791 791 791 792 792 793 793 794 794 795 795 796 796 796 797 797 798 798 798 799 799 800 800 800 801 801 801 801 801 801 802 802 802 803 803 803 804 804 804 804 805 805 805 805 805 806 806 806 806 806 805 805 805 806 806 806 806 806 805 805 805 805 805 805 806 806 806 806 806 805 805 805 805 806 806 806 806 807 807 807 807 807
788 788 789 790 790 791 791 791 792 792 793 793 794 794 795 795 796 796 796 797 797 798 798 798 799 799 799 799 800 800 800 800 801 801 801 801 801 802 802 802 803 803 803 803 804 804 804 804 804 805 805 805 805 804 804 804 804 804 804 805 805 805 805 804 804 805 805 805 805 805 805 805 804 804 804 804 804 805 805 805 805 806 806 806 806 806
787 788 789 789 790 790 791 791 792 792 793 793 794 794 794 795 795 796 796 796 797 797 797 798 798 798 798 799 799 799 800 800 800 800 800 800 801 801 801 801 802 802 802 802 803 803 803 803 803 804 804 804 804 803 803 803 803 802 803 803 803 803 803 803 803 803 803 804 804 804 804 803 803 803 803 803 803 804 804 804 804 804 805 805 805 806
787 788 788 789 789 790 790 791 791 792 792 793 793 793 794 794 795 795 795 796 796 796 797 797 797 797 798 798 798 798 799 799 799 799 800 800 800 800 800 801 801 801 801 801 801 802 802 802 802 802 802 802 802 802 801 801 801 801 801 801 802 802 802 802 802 802 802 802 802 802 802 802 802 802 802 802 802 802 802 803 803 803 804 804 804 804
786 787 788 788 789 789 790 790 791 791 792 792 792 793 793 794 794 794 795 795 795 796 796 796 796 796 797 797 797 798 798 798 798 799 799 799 799 800 800 800 800 800 801 801 801 801 801 801 801 801 801 801 801 800 800 800 800 800 800 800 801 801 801 801 801 801 801 801 801 801 801 801 801 801 801 801 801 801 801 802 802 802 802 803 803 803
786 786 787 787 788 789 789 790 790 791 791 791 792 792 792 793 793 793 794 794 794 795 795 795 795 796 796 796 796 797 797 797 798 798 798 799 799 799 799 799 800 800 800 800 800 800 800 800 800 800 800 800 800 799 798 799 799 799 799 799 800 799 799 799 800 800 801 801 801 801 801 801 801 800 800 800 800 800 800 801 801 801 801 802 802 802
784 785 786 786 787 787 788 788 789 790 790 790 791 791 791 792 792 792 793 793 793 794 794 794 794 795 795 795 796 796 796 797 797 797 798 798 798 798 799 799 799 799 799 799 799 799 799 798 798 798 798 798 798 798 797 797 798 798 798 798 798 798 798 798 798 799 799 800 800 800 800 800 800 800 799 799 799 799 799 800 800 800 801 801 801 801
783 784 785 785 786 786 787 787 788 788 789 789 790 790 791 791 791 791 792 792 792 793 793 793 793 794 794 794 795 795 796 796 796 796 797 797 797 797 798 798 798 798 798 798 798 798 797 797 796 796 796 796 796 796 796 796 796 797 797 797 797 797 797 797 798 798 799 799 799 799 799 799 799 799 799 798 798 797 798 798 799 800 800 800 800 800
782 782 783 784 784 785 786 786 786 787 787 788 788 789 789 790 790 790 791 791 791 791 792 792 792 792 792 793 793 794 794 795 795 795 796 796 796 796 797 797 797 797 797 797 797 797 796 796 795 794 794 794 795 795 795 795 796 796 796 796 796 796 797 797 797 797 798 798 798 798 798 798 798 798 798 798 797 797 796 797 798 799 799 799 799 800